Find Starlink 36826

NORAD ID: 67885 Int'l Des: 2026-035 Owner: SPXS Country: US Constellation: starlink operational
LEOCIRCULARRETROGRADE

現在のビュー

3D地球を読み込み中...

Starlink 36826について

説明を読み込み中...

次回通過

Passes for default location (London). Set your location on the main map for personalized predictions.

高度履歴

Loading altitude history...

軌道要素

1 67885U 26035G 26146.38824846 .00023882 00000-0 73951-3 0 9993
2 67885 97.2850 79.8610 0001271 110.9588 249.1791 15.33454792 15890
Epoch: May 26, 2026 • Age: 11 hours

現在のステータス

高度 467.9 km
速度 7.63 km/s
衛星直下点 15.09°N, 111.26°W
打ち上げ日 Feb 21, 2026
運用期間 0.2 years
タイプ internet

技術仕様

分類 Payload
質量 575.00 kg
乾燥質量 530.00 kg
総質量 575.00 kg
長さ 0.30 m
直径 4.10 m
スパン 29.00 m
形状 Box + pan
製造者 SPXS
バスタイプ Starlink V2MO
フェーズステータス In Orbit
所有者/国 SPXS/US

Most Searched